Regional Weather Roundup
Issued by NWS

Home | Current Version | Previous Version | Graphics & Text | Print | Product List | Glossary On
Versions: 1 2 3 4 5 6 7 8 9 10 11 12 13 14 15 16 17 18 19 20 21 22 23 24 25 26 27 28 29 30 31 32 33 34 35 36 37 38 39 40 41 42 43 44 45 46 47 48 49 50
000
ASUS43 KDMX 240903
RWRIA

WEATHER ROUNDUP FOR IOWA
NATIONAL WEATHER SERVICE DES MOINES IA
400 AM CDT SAT SEP 24 2016

NOTE: "FAIR" INDICATES FEW OR NO CLOUDS BELOW 12,000 FEET WITH NO
SIGNIFICANT WEATHER AND/OR OBSTRUCTIONS TO VISIBILITY.

* - THESE STATIONS ARE NOT NWS STATIONS...THUS NOT UNDER NWS
QUALITY CONTROL.  THEY ALSO DO NOT REPORT WEATHER SUCH
AS PRECIPITATION OR FOG.

IAZ001>003-012>014-020>022-031>034-043>046-241000-
   NORTHWEST IOWA

CITY           SKY/WX    TMP DP  RH WIND       PRES   REMARKS
CARROLL *      CLOUDY    68  68 100 SE7       30.01F FOG
CHEROKEE *     PTCLDY    68  68 100 SE5       29.99S
DENISON *      PTCLDY    66  63  88 CALM      29.98R
LE MARS *      PTCLDY    68  64  88 SE8       29.96S
ORANGE CITY *  PTCLDY    70  64  83 SE6       29.97F
SHELDON *      MOCLDY    68  68 100 SE8       29.97S
SIOUX CITY     PTCLDY    68  64  87 SE8       29.93F
SPENCER        CLOUDY    69  68  96 SE16      30.01S FOG
STORM LAKE *   CLEAR     68  68 100 SE10      30.01S FOG
$$

IAZ055>058-069>071-079>083-090>094-241000-
   SOUTHWEST IOWA

CITY           SKY/WX    TMP DP  RH WIND       PRES   REMARKS
ATLANTIC *     CLEAR     68  64  88 CALM      30.00S
AUDUBON *      CLEAR     63  59  88 CALM      30.02S
CLARINDA *       N/A     66  64  94 MISG      30.01S
COUNCIL BLFS * CLEAR     70  64  83 SE9G16    29.97F
CRESTON *        N/A     64  63  94 SE7       30.04S
HARLAN  *      PTCLDY    68  64  88 SE3       30.02F
LAMONI         CLEAR     68  64  87 SE6       30.03S
RED OAK *      PTCLDY    70  64  83 S7        29.99F HAZE
SHENANDOAH *   PTCLDY    70  64  83 SE8       29.98F
$$

IAZ047>049-059>061-072>074-084-241000-
   CENTRAL IOWA

CITY           SKY/WX    TMP DP  RH WIND       PRES   REMARKS
AMES           CLEAR     66  66 100 SE5       30.04F FOG
ANKENY *         N/A    N/A N/A N/A MISG        N/A
BOONE *        CLOUDY    68  68 100 SE10      30.04S FOG
CHARITON *       N/A     66  64  94 SE6       30.04S
DES MOINES     PTCLDY    70  68  93 E6        30.03S FOG
GRINNELL*        N/A     66  65  95 E7        30.07S FOG
KNOXVILLE *    CLOUDY    68  66  94 E5        30.04R FOG
MARSHALLTOWN   PTCLDY    66  66 100 E12       30.06S FOG
NEWTON *       CLOUDY    66  66 100 E8        30.05S FOG
PELLA *          N/A     67  66  96 E5        30.06S FOG
PERRY *        CLOUDY    68  68 100 E7        30.03S FOG
$$

IAZ004>006-015-016-023>025-035-036-241000-
   NORTH CENTRAL IOWA

CITY           SKY/WX    TMP DP  RH WIND       PRES   REMARKS
ALGONA *       CLOUDY    68  66  94 SE12G20   30.04S
CLARION *      CLOUDY    68  68 100 SE10G18   30.05S FOG
ESTHERVILLE    CLOUDY    68  68 100 SE14      30.02F FOG
FORT DODGE *   CLOUDY    68  64  88 SE9       30.05S
FOREST CITY *  CLOUDY    64  64 100 SE10G17   30.06F
WEBSTER CITY * CLOUDY    66  66 100 SE8       30.03S FOG
IOWA FALLS *   CLOUDY    67  65  94 SE9       30.08S FOG
$$

IAZ007>011-017>019-026>030-037>042-050>054-066-241000-
   NORTHEAST IOWA

CITY           SKY/WX    TMP DP  RH WIND       PRES   REMARKS
CEDAR RAPIDS   CLOUDY    66  66 100 SE10      30.09R
CHARLES CITY * CLOUDY    64  64 100 SE12G17   30.11R
CLINTON *      CLOUDY    66  64  93 E10       30.12S
DECORAH *      CLOUDY    63  63 100 SE8G14    30.12S
DUBUQUE        CLOUDY    64  62  93 E7        30.14R FOG
MONTICELLO *   CLOUDY    64  63  94 E9        30.11S
OELWEIN *      MOCLDY    63  63 100 E9        30.12R
WATERLOO       CLOUDY    65  62  90 E12       30.09R
$$

IAZ064-065-067-068-078-241000-
   EAST CENTRAL IOWA

CITY           SKY/WX    TMP DP  RH WIND       PRES   REMARKS
DAVENPORT      CLOUDY    66  64  93 E10       30.11S
IOWA CITY      CLEAR     66  64  93 E7        30.10S
MUSCATINE *    MOCLDY    66  64  94 E3        30.09S FOG
QUAD CITIES    CLOUDY    68  64  87 E9        30.10S
$$

IAZ062-063-075>077-085>089-095>099-241000-
   SOUTHEAST IOWA

CITY           SKY/WX    TMP DP  RH WIND       PRES   REMARKS
BURLINGTON     CLEAR     67  67 100 E5        30.08R FOG
FAIRFIELD *    MOCLDY    66  64  94 E6        30.07R FOG
FORT MADISON * CLEAR     68  66  94 CALM      30.09R FOG
KEOKUK *       CLEAR     70  68  94 SE7       30.06S
OSKALOOSA *      N/A     66  65  97 E6        30.07R FOG
CENTERVILLE *    N/A     63  63 100 CALM      30.07R
OTTUMWA        CLEAR     67  65  93 E7        30.06R FOG
WASHINGTON *     N/A    N/A N/A N/A MISG        N/A
$$

ABBREVIATIONS USED IN REMARKS
   TC - TEMPERATURES IN CELSIUS
  WCI - WIND CHILL INDEX
   HX - HEAT INDEX
  VSB - VISIBILITY
$$





USA.gov is the U.S. government's official web portal to all federal, state and local government web resources and services.